Station Historical Data
Daily Summary for June 13, 2017 Units:  Metric    English   Both
« Previous Day
Next Day »
Daily Weekly Monthly Yearly Custom
  High: Low: Average:
Temperature: 28.3 °C 19.1 °C 23.8 °C
Dew Point: 19.3 °C 12.3 °C 17.3 °C
Humidity: 86% 38% 68%
Wind Speed: 12.9km/h 0km/h 3.4km/h
Wind Gust: 22.5km/h - -
Wind- - SSE
Pressure: 1015.5 hPa 1012.1 hPa -
Precipitation: 0 mm    
Historical Graphs
 
 
Tabular Data for June 13, 2017
Time Temperature Dew Point Pressure Wind Wind Speed Wind Gust Humidity Rainfall Rate (Hourly)
00:04 23.8 °C 17.3 °C 1012.8 hPa Calm   4.8 km/h 67% 0 mm
00:09 23.7 °C 17.4 °C 1012.8 hPa Calm   3.2 km/h 68% 0 mm
00:14 23.6 °C 17.3 °C 1012.8 hPa Calm     68% 0 mm
00:19 23.5 °C 17.3 °C 1012.8 hPa Calm     68% 0 mm
00:24 23.4 °C 17.4 °C 1012.8 hPa Calm     69% 0 mm
00:29 23.3 °C 17.3 °C 1012.8 hPa Calm   4.8 km/h 69% 0 mm
00:34 23.3 °C 17.3 °C 1012.8 hPa SW 1.6 km/h 4.8 km/h 69% 0 mm
00:39 23.3 °C 17.3 °C 1012.8 hPa SW 1.6 km/h 3.2 km/h 69% 0 mm
00:44 23.5 °C 17.5 °C 1012.8 hPa Calm   3.2 km/h 69% 0 mm
00:49 23.7 °C 17.7 °C 1012.8 hPa Calm   4.8 km/h 69% 0 mm
00:54 23.7 °C 17.7 °C 1012.8 hPa Calm   1.6 km/h 69% 0 mm
00:59 23.8 °C 17.5 °C 1012.8 hPa Calm     68% 0 mm
01:04 23.8 °C 17.6 °C 1012.8 hPa SW 4.8 km/h 6.4 km/h 68% 0 mm
01:09 23.8 °C 17.6 °C 1012.8 hPa SW 3.2 km/h 4.8 km/h 68% 0 mm
01:14 23.7 °C 17.4 °C 1012.8 hPa SW 6.4 km/h 6.4 km/h 68% 0 mm
01:19 23.9 °C 17.7 °C 1012.8 hPa SW 1.6 km/h 6.4 km/h 68% 0 mm
01:24 24.1 °C 17.8 °C 1012.8 hPa SW 1.6 km/h 6.4 km/h 68% 0 mm
01:29 24.4 °C 17.9 °C 1012.8 hPa SW 1.6 km/h 8 km/h 67% 0 mm
01:34 24.7 °C 17.9 °C 1012.8 hPa SW 1.6 km/h 8 km/h 66% 0 mm
01:39 24.9 °C 17.8 °C 1012.8 hPa Calm   9.7 km/h 65% 0 mm
01:49 25.1 °C 17.8 °C 1012.8 hPa SW 3.2 km/h 9.7 km/h 64% 0 mm
01:54 25.2 °C 17.9 °C 1012.4 hPa SW 4.8 km/h 9.7 km/h 64% 0 mm
01:59 25.2 °C 17.9 °C 1012.8 hPa SW 4.8 km/h 9.7 km/h 64% 0 mm
02:04 25.3 °C 18.1 °C 1012.4 hPa SW 4.8 km/h 9.7 km/h 64% 0 mm
02:09 25.4 °C 18.1 °C 1012.4 hPa WSW 3.2 km/h 8 km/h 64% 0 mm
02:14 25.6 °C 18 °C 1012.4 hPa SSW 6.4 km/h 11.3 km/h 63% 0 mm
02:19 25.6 °C 18.1 °C 1012.4 hPa SW 4.8 km/h 11.3 km/h 63% 0 mm
02:24 25.6 °C 18.1 °C 1012.4 hPa SW 4.8 km/h 11.3 km/h 63% 0 mm
02:29 25.6 °C 18 °C 1012.4 hPa SW 1.6 km/h 9.7 km/h 63% 0 mm
02:34 25.6 °C 18.1 °C 1012.4 hPa SW 4.8 km/h 8 km/h 63% 0 mm
02:39 25.5 °C 18.2 °C 1012.4 hPa WSW 8 km/h 11.3 km/h 64% 0 mm
02:44 25.4 °C 18.1 °C 1012.4 hPa SW 4.8 km/h 9.7 km/h 64% 0 mm
02:49 25.4 °C 18.1 °C 1012.4 hPa SW 4.8 km/h 12.9 km/h 64% 0 mm
02:54 25.3 °C 18 °C 1012.4 hPa SW 4.8 km/h 12.9 km/h 64% 0 mm
02:59 25.2 °C 18.2 °C 1012.4 hPa SW 4.8 km/h 11.3 km/h 65% 0 mm
03:04 25.2 °C 18.1 °C 1012.4 hPa SW 4.8 km/h 9.7 km/h 65% 0 mm
03:09 25.1 °C 18.1 °C 1012.4 hPa SW 3.2 km/h 9.7 km/h 65% 0 mm
03:14 24.9 °C 18.2 °C 1012.1 hPa SW 1.6 km/h 8 km/h 66% 0 mm
03:19 24.9 °C 18.1 °C 1012.1 hPa SW 4.8 km/h 14.5 km/h 66% 0 mm
03:24 24.8 °C 18.3 °C 1012.4 hPa WSW 8 km/h 11.3 km/h 67% 0 mm
03:29 24.8 °C 18.3 °C 1012.1 hPa Calm   8 km/h 67% 0 mm
03:34 24.8 °C 18.5 °C 1012.1 hPa WSW 6.4 km/h 14.5 km/h 68% 0 mm
03:39 24.8 °C 18.5 °C 1012.1 hPa SW 6.4 km/h 9.7 km/h 68% 0 mm
03:44 24.9 °C 18.6 °C 1012.1 hPa SW 4.8 km/h 11.3 km/h 68% 0 mm
03:49 24.9 °C 18.6 °C 1012.1 hPa WSW 4.8 km/h 11.3 km/h 68% 0 mm
03:54 24.8 °C 18.5 °C 1012.4 hPa WSW 4.8 km/h 11.3 km/h 68% 0 mm
03:59 24.9 °C 18.6 °C 1012.4 hPa WSW 6.4 km/h 16.1 km/h 68% 0 mm
04:04 24.9 °C 18.6 °C 1012.4 hPa WSW 6.4 km/h 16.1 km/h 68% 0 mm
04:09 24.8 °C 18.7 °C 1012.8 hPa West 4.8 km/h 14.5 km/h 69% 0 mm
04:14 24.6 °C 18.6 °C 1012.8 hPa WSW 4.8 km/h 12.9 km/h 69% 0 mm
04:19 24.4 °C 18.6 °C 1012.8 hPa WSW 4.8 km/h 12.9 km/h 70% 0 mm
04:24 24.2 °C 18.4 °C 1012.8 hPa SW 8 km/h 9.7 km/h 70% 0 mm
04:29 24 °C 18.4 °C 1012.8 hPa WSW 3.2 km/h 8 km/h 71% 0 mm
04:34 23.8 °C 18.3 °C 1012.8 hPa WSW 1.6 km/h 8 km/h 71% 0 mm
04:39 23.6 °C 18.2 °C 1012.8 hPa SW 6.4 km/h 8 km/h 72% 0 mm
04:44 23.3 °C 18.2 °C 1012.8 hPa WSW 6.4 km/h 11.3 km/h 73% 0 mm
04:49 23.1 °C 18 °C 1012.8 hPa WSW 4.8 km/h 11.3 km/h 73% 0 mm
04:54 22.9 °C 18.1 °C 1012.8 hPa WSW 4.8 km/h 11.3 km/h 74% 0 mm
04:59 22.8 °C 18.1 °C 1012.8 hPa WSW 4.8 km/h 9.7 km/h 75% 0 mm
05:04 22.7 °C 18 °C 1013.1 hPa WSW 3.2 km/h 9.7 km/h 75% 0 mm
05:09 22.7 °C 18.2 °C 1013.1 hPa West 3.2 km/h 8 km/h 76% 0 mm
05:14 22.7 °C 18.2 °C 1013.1 hPa West 3.2 km/h 9.7 km/h 76% 0 mm
05:19 22.7 °C 18.2 °C 1013.1 hPa West 6.4 km/h 9.7 km/h 76% 0 mm
05:24 22.6 °C 18.2 °C 1013.1 hPa West 4.8 km/h 9.7 km/h 76% 0 mm
05:29 22.6 °C 18.1 °C 1013.4 hPa West 6.4 km/h 9.7 km/h 76% 0 mm
05:34 22.6 °C 18.3 °C 1013.4 hPa SW 3.2 km/h 14.5 km/h 77% 0 mm
05:39 22.6 °C 18.4 °C 1013.4 hPa West 6.4 km/h 12.9 km/h 77% 0 mm
05:44 22.7 °C 18.4 °C 1013.4 hPa West 8 km/h 9.7 km/h 77% 0 mm
05:49 22.7 °C 18.5 °C 1013.4 hPa West 1.6 km/h 14.5 km/h 77% 0 mm
05:54 22.7 °C 18.5 °C 1013.4 hPa West 4.8 km/h 14.5 km/h 77% 0 mm
05:59 22.7 °C 18.5 °C 1013.4 hPa West 4.8 km/h 11.3 km/h 77% 0 mm
06:04 22.8 °C 18.6 °C 1013.8 hPa West 4.8 km/h 9.7 km/h 77% 0 mm
06:09 22.8 °C 18.6 °C 1013.8 hPa West 3.2 km/h 8 km/h 77% 0 mm
06:14 22.8 °C 18.6 °C 1013.4 hPa Calm   6.4 km/h 77% 0 mm
06:19 22.7 °C 18.5 °C 1013.4 hPa SW 3.2 km/h 8 km/h 77% 0 mm
06:24 22.7 °C 18.5 °C 1013.4 hPa SW 3.2 km/h 8 km/h 77% 0 mm
06:29 22.7 °C 18.5 °C 1013.4 hPa SW 4.8 km/h 8 km/h 77% 0 mm
06:34 22.7 °C 18.5 °C 1013.4 hPa Calm   6.4 km/h 77% 0 mm
06:39 22.8 °C 18.6 °C 1013.8 hPa West 3.2 km/h 9.7 km/h 77% 0 mm
06:44 22.7 °C 18.4 °C 1014.4 hPa WNW 3.2 km/h 6.4 km/h 77% 0 mm
06:49 22.7 °C 18.4 °C 1014.1 hPa West 4.8 km/h 8 km/h 77% 0 mm
06:54 22.7 °C 18.4 °C 1013.4 hPa WSW 3.2 km/h 8 km/h 77% 0 mm
06:59 22.7 °C 18.4 °C 1013.4 hPa SSW 3.2 km/h 6.4 km/h 77% 0 mm
07:04 22.7 °C 18.4 °C 1013.8 hPa SSW 1.6 km/h 6.4 km/h 77% 0 mm
07:09 22.8 °C 18.6 °C 1013.8 hPa SSW 1.6 km/h 4.8 km/h 77% 0 mm
07:14 23 °C 18.7 °C 1014.1 hPa Calm   6.4 km/h 77% 0 mm
07:19 23 °C 18.7 °C 1014.1 hPa NW 3.2 km/h 6.4 km/h 77% 0 mm
07:24 23.1 °C 18.6 °C 1014.1 hPa WNW 4.8 km/h 9.7 km/h 76% 0 mm
07:29 23 °C 17.9 °C 1014.1 hPa NNW 3.2 km/h 11.3 km/h 73% 0 mm
07:34 23 °C 17 °C 1013.8 hPa NNW 4.8 km/h 14.5 km/h 69% 0 mm
07:39 23.2 °C 16.9 °C 1014.1 hPa NNW 4.8 km/h 14.5 km/h 68% 0 mm
07:44 23.3 °C 17.3 °C 1014.1 hPa NW 1.6 km/h 9.7 km/h 69% 0 mm
07:49 23.3 °C 17.1 °C 1014.4 hPa NNW 3.2 km/h 6.4 km/h 68% 0 mm
07:54 23.2 °C 16.9 °C 1014.1 hPa Calm   8 km/h 68% 0 mm
07:59 23.2 °C 17.2 °C 1014.4 hPa North 3.2 km/h 8 km/h 69% 0 mm
08:04 23.1 °C 17.3 °C 1014.1 hPa NNE 1.6 km/h 6.4 km/h 70% 0 mm
08:09 23.2 °C 17.4 °C 1014.1 hPa NNW 3.2 km/h 9.7 km/h 70% 0 mm
08:14 23.1 °C 17.3 °C 1014.1 hPa Calm   8 km/h 70% 0 mm
08:19 23 °C 17.4 °C 1014.4 hPa NE 1.6 km/h 4.8 km/h 71% 0 mm
08:24 22.9 °C 17.4 °C 1014.1 hPa Calm   1.6 km/h 71% 0 mm
08:29 23.1 °C 17.3 °C 1014.4 hPa Calm   1.6 km/h 70% 0 mm
08:34 23.2 °C 17.4 °C 1014.1 hPa Calm     70% 0 mm
08:39 23.2 °C 17.2 °C 1014.1 hPa Calm     69% 0 mm
08:44 23.3 °C 17.1 °C 1014.1 hPa Calm     68% 0 mm
08:49 23.3 °C 17.1 °C 1014.1 hPa Calm     68% 0 mm
08:54 23.3 °C 16.8 °C 1014.1 hPa SE 3.2 km/h 4.8 km/h 67% 0 mm
08:59 23.3 °C 17.1 °C 1014.1 hPa SE 1.6 km/h 6.4 km/h 68% 0 mm
09:04 23.2 °C 17.7 °C 1014.1 hPa Calm   3.2 km/h 71% 0 mm
09:09 23.2 °C 17.4 °C 1014.1 hPa SSE 1.6 km/h 4.8 km/h 70% 0 mm
09:14 23.3 °C 17.3 °C 1013.8 hPa SE 3.2 km/h 8 km/h 69% 0 mm
09:19 23.4 °C 17.6 °C 1014.1 hPa Calm   9.7 km/h 70% 0 mm
09:24 23.6 °C 17.3 °C 1014.1 hPa SW 3.2 km/h 4.8 km/h 68% 0 mm
09:29 23.7 °C 17.7 °C 1014.1 hPa SW 1.6 km/h 4.8 km/h 69% 0 mm
09:34 23.9 °C 17.8 °C 1014.1 hPa SSW 1.6 km/h 6.4 km/h 69% 0 mm
09:39 23.9 °C 17.9 °C 1014.4 hPa SSW 1.6 km/h 6.4 km/h 69% 0 mm
09:44 23.8 °C 17.8 °C 1014.4 hPa WSW 1.6 km/h 3.2 km/h 69% 0 mm
09:49 23.8 °C 17.5 °C 1014.4 hPa SW 1.6 km/h 3.2 km/h 68% 0 mm
09:54 24.2 °C 17.7 °C 1014.4 hPa Calm   3.2 km/h 67% 0 mm
09:59 24.3 °C 17.3 °C 1014.4 hPa Calm   3.2 km/h 65% 0 mm
10:04 24.4 °C 17.4 °C 1014.1 hPa Calm   3.2 km/h 65% 0 mm
10:09 25.2 °C 18.4 °C 1014.1 hPa Calm     66% 0 mm
10:14 25.7 °C 17.9 °C 1014.1 hPa Calm     62% 0 mm
10:19 25.9 °C 17.8 °C 1014.1 hPa Calm     61% 0 mm
10:24 26.1 °C 16.9 °C 1014.1 hPa Calm     57% 0 mm
10:29 26.2 °C 16.7 °C 1014.1 hPa Calm     56% 0 mm
10:34 26.2 °C 17 °C 1014.1 hPa Calm     57% 0 mm
10:39 26.7 °C 16.6 °C 1014.1 hPa Calm     54% 0 mm
10:44 26.8 °C 15.5 °C 1014.1 hPa Calm   4.8 km/h 50% 0 mm
10:49 27.1 °C 16.3 °C 1014.1 hPa Calm   4.8 km/h 52% 0 mm
10:54 27.7 °C 17.2 °C 1014.1 hPa WNW 1.6 km/h 4.8 km/h 53% 0 mm
10:59 27.3 °C 14.7 °C 1014.1 hPa NW 1.6 km/h 3.2 km/h 46% 0 mm
11:04 27.3 °C 14.7 °C 1014.1 hPa NW 1.6 km/h 4.8 km/h 46% 0 mm
11:09 27.6 °C 15.3 °C 1013.8 hPa North 1.6 km/h 4.8 km/h 47% 0 mm
11:14 27.9 °C 15.9 °C 1013.8 hPa East 3.2 km/h 3.2 km/h 48% 0 mm
11:19 27.7 °C 14.7 °C 1013.8 hPa Calm   6.4 km/h 45% 0 mm
11:24 28.1 °C 16 °C 1013.8 hPa NE 3.2 km/h 3.2 km/h 48% 0 mm
11:29 27.7 °C 13.9 °C 1013.8 hPa NE 4.8 km/h 11.3 km/h 43% 0 mm
11:34 27.5 °C 13.8 °C 1013.8 hPa ENE 3.2 km/h 11.3 km/h 43% 0 mm
11:39 27.3 °C 13.6 °C 1013.8 hPa ENE 1.6 km/h 8 km/h 43% 0 mm
11:44 27.7 °C 15 °C 1013.8 hPa Calm   4.8 km/h 46% 0 mm
11:49 27.8 °C 14.1 °C 1013.8 hPa ENE 1.6 km/h 4.8 km/h 43% 0 mm
11:54 27.9 °C 14.5 °C 1014.1 hPa East 3.2 km/h 4.8 km/h 44% 0 mm
11:59 28 °C 13.9 °C 1014.1 hPa Calm   4.8 km/h 42% 0 mm
12:04 27.9 °C 12.3 °C 1014.1 hPa ENE 1.6 km/h 4.8 km/h 38% 0 mm
12:09 27.9 °C 14.2 °C 1014.1 hPa NE 1.6 km/h 4.8 km/h 43% 0 mm
12:14 27.7 °C 13.7 °C 1014.1 hPa NE 3.2 km/h 6.4 km/h 42% 0 mm
12:19 27.8 °C 14.4 °C 1014.1 hPa Calm   4.8 km/h 44% 0 mm
12:24 27.8 °C 14.4 °C 1014.1 hPa ENE 3.2 km/h 8 km/h 44% 0 mm
12:29 28.3 °C 14.8 °C 1014.1 hPa ENE 3.2 km/h 11.3 km/h 44% 0 mm
12:34 28.2 °C 17.1 °C 1014.1 hPa NNE 4.8 km/h 14.5 km/h 51% 0 mm
12:39 28.2 °C 17.7 °C 1014.1 hPa North 4.8 km/h 14.5 km/h 53% 0 mm
12:44 28.1 °C 17.6 °C 1014.1 hPa NNE 6.4 km/h 9.7 km/h 53% 0 mm
12:49 27.4 °C 17.3 °C 1014.1 hPa NNW 3.2 km/h 11.3 km/h 54% 0 mm
12:54 27.2 °C 17.4 °C 1014.1 hPa North 3.2 km/h 12.9 km/h 55% 0 mm
12:59 27.2 °C 17.4 °C 1014.1 hPa NNE 1.6 km/h 8 km/h 55% 0 mm
13:04 27.4 °C 17.6 °C 1013.8 hPa NNE 3.2 km/h 8 km/h 55% 0 mm
13:09 27.5 °C 17.4 °C 1013.8 hPa North 3.2 km/h 8 km/h 54% 0 mm
13:14 27.8 °C 17.6 °C 1013.8 hPa North 3.2 km/h 8 km/h 54% 0 mm
13:19 27.8 °C 18.2 °C 1014.1 hPa North 3.2 km/h 8 km/h 56% 0 mm
13:24 27.6 °C 17.7 °C 1014.1 hPa North 3.2 km/h 16.1 km/h 55% 0 mm
13:29 27.1 °C 17.5 °C 1013.8 hPa North 4.8 km/h 16.1 km/h 56% 0 mm
13:34 27.2 °C 17.3 °C 1013.8 hPa North 4.8 km/h 16.1 km/h 55% 0 mm
13:39 27 °C 16.9 °C 1013.8 hPa North 3.2 km/h 17.7 km/h 54% 0 mm
13:44 26.9 °C 18.2 °C 1013.8 hPa NNW 8 km/h 14.5 km/h 59% 0 mm
13:49 27.1 °C 18.4 °C 1013.8 hPa Calm   14.5 km/h 59% 0 mm
13:54 27.3 °C 19.3 °C 1013.8 hPa NW 3.2 km/h 9.7 km/h 62% 0 mm
13:59 27.4 °C 18.1 °C 1013.8 hPa NNW 12.9 km/h 12.9 km/h 57% 0 mm
14:04 27.3 °C 18.3 °C 1013.8 hPa NNW 4.8 km/h 12.9 km/h 58% 0 mm
14:09 26.8 °C 17.8 °C 1013.8 hPa NNW 4.8 km/h 12.9 km/h 58% 0 mm
14:14 26.5 °C 17.6 °C 1013.8 hPa North 4.8 km/h 19.3 km/h 58% 0 mm
14:19 27.1 °C 17.2 °C 1013.8 hPa North 6.4 km/h 19.3 km/h 55% 0 mm
14:24 27.2 °C 17.7 °C 1013.8 hPa NW 4.8 km/h 12.9 km/h 56% 0 mm
14:29 27.1 °C 16.3 °C 1013.8 hPa North 6.4 km/h 17.7 km/h 52% 0 mm
14:34 26.9 °C 16.3 °C 1013.8 hPa NNE 4.8 km/h 11.3 km/h 52% 0 mm
14:39 26.6 °C 15.6 °C 1013.8 hPa NNE 4.8 km/h 11.3 km/h 51% 0 mm
14:44 25.8 °C 15.2 °C 1013.8 hPa NNE 6.4 km/h 20.9 km/h 52% 0 mm
14:49 25.2 °C 15.8 °C 1013.8 hPa North 3.2 km/h 11.3 km/h 56% 0 mm
14:54 25.3 °C 15.6 °C 1013.8 hPa NNW 4.8 km/h 14.5 km/h 55% 0 mm
14:59 25.3 °C 16.5 °C 1013.4 hPa NNE 3.2 km/h 19.3 km/h 58% 0 mm
15:04 25.8 °C 16.9 °C 1013.8 hPa NW 9.7 km/h 17.7 km/h 58% 0 mm
15:09 25.8 °C 16.4 °C 1013.8 hPa North 8 km/h 17.7 km/h 56% 0 mm
15:14 25.7 °C 15.7 °C 1013.4 hPa NNE 6.4 km/h 17.7 km/h 54% 0 mm
15:19 25.4 °C 16.3 °C 1013.4 hPa North 3.2 km/h 20.9 km/h 57% 0 mm
15:24 25.3 °C 16.5 °C 1013.4 hPa NE 6.4 km/h 14.5 km/h 58% 0 mm
15:29 25.6 °C 17.3 °C 1013.4 hPa NNE 3.2 km/h 12.9 km/h 60% 0 mm
15:34 25.7 °C 17.3 °C 1013.8 hPa NNE 8 km/h 16.1 km/h 60% 0 mm
15:39 25.2 °C 17.4 °C 1013.8 hPa North 8 km/h 20.9 km/h 62% 0 mm
15:44 25 °C 17.4 °C 1013.8 hPa North 6.4 km/h 20.9 km/h 63% 0 mm
15:49 24.5 °C 17 °C 1013.8 hPa North 6.4 km/h 17.7 km/h 63% 0 mm
15:54 23.8 °C 16.8 °C 1013.8 hPa North 8 km/h 22.5 km/h 65% 0 mm
15:59 23.6 °C 16.8 °C 1013.8 hPa North 8 km/h 22.5 km/h 66% 0 mm
16:04 23.4 °C 17.2 °C 1013.8 hPa NNW 4.8 km/h 14.5 km/h 68% 0 mm
16:09 23.3 °C 17.1 °C 1013.8 hPa NW 8 km/h 16.1 km/h 68% 0 mm
16:14 23.3 °C 17.3 °C 1013.8 hPa NNE 1.6 km/h 16.1 km/h 69% 0 mm
16:19 23.6 °C 17.6 °C 1013.8 hPa North 1.6 km/h 12.9 km/h 69% 0 mm
16:24 23.6 °C 17.6 °C 1013.8 hPa NNW 3.2 km/h 11.3 km/h 69% 0 mm
16:29 23.8 °C 17.1 °C 1013.8 hPa North 3.2 km/h 6.4 km/h 66% 0 mm
16:34 23.4 °C 16.7 °C 1013.8 hPa NNW 8 km/h 14.5 km/h 66% 0 mm
16:39 23.3 °C 17.1 °C 1013.8 hPa North 4.8 km/h 14.5 km/h 68% 0 mm
16:44 23.4 °C 17.2 °C 1013.8 hPa North 4.8 km/h 12.9 km/h 68% 0 mm
16:49 23.5 °C 17.3 °C 1013.8 hPa NNE 4.8 km/h 12.9 km/h 68% 0 mm
16:54 23.4 °C 17.4 °C 1013.8 hPa NE 4.8 km/h 14.5 km/h 69% 0 mm
16:59 23.4 °C 17.4 °C 1013.8 hPa North 4.8 km/h 8 km/h 69% 0 mm
17:04 23.3 °C 17.1 °C 1013.8 hPa NE 1.6 km/h 9.7 km/h 68% 0 mm
17:09 23 °C 17 °C 1013.8 hPa NE 1.6 km/h 14.5 km/h 69% 0 mm
17:14 22.9 °C 17.1 °C 1013.8 hPa NE 4.8 km/h 14.5 km/h 70% 0 mm
17:19 22.8 °C 16.8 °C 1013.8 hPa NE 6.4 km/h 14.5 km/h 69% 0 mm
17:24 22.8 °C 17.3 °C 1014.1 hPa NE 1.6 km/h 8 km/h 71% 0 mm
17:29 22.9 °C 17.3 °C 1013.8 hPa NNW 1.6 km/h 8 km/h 71% 0 mm
17:34 22.6 °C 17.1 °C 1014.1 hPa NE 4.8 km/h 9.7 km/h 71% 0 mm
17:39 22.4 °C 16.9 °C 1013.8 hPa ENE 8 km/h 11.3 km/h 71% 0 mm
17:44 22.8 °C 17.7 °C 1014.1 hPa NE 4.8 km/h 14.5 km/h 73% 0 mm
17:49 22.8 °C 18.1 °C 1014.1 hPa NE 4.8 km/h 14.5 km/h 75% 0 mm
17:54 23 °C 17.7 °C 1014.1 hPa NE 6.4 km/h 16.1 km/h 72% 0 mm
17:59 22.9 °C 17.6 °C 1014.1 hPa NE 3.2 km/h 16.1 km/h 72% 0 mm
18:04 22.9 °C 17.6 °C 1014.1 hPa North 3.2 km/h 8 km/h 72% 0 mm
18:09 23.2 °C 17.8 °C 1013.8 hPa NNE 3.2 km/h 8 km/h 72% 0 mm
18:14 23.3 °C 17.7 °C 1013.8 hPa NNE 3.2 km/h 8 km/h 71% 0 mm
18:19 23.2 °C 17.8 °C 1014.1 hPa NNE 1.6 km/h 8 km/h 72% 0 mm
18:24 23.2 °C 17.9 °C 1014.1 hPa NE 4.8 km/h 14.5 km/h 72% 0 mm
18:29 23.4 °C 18.3 °C 1014.1 hPa NE 4.8 km/h 14.5 km/h 73% 0 mm
18:34 23.3 °C 18 °C 1014.1 hPa NNW 1.6 km/h 9.7 km/h 72% 0 mm
18:39 23.1 °C 18 °C 1013.8 hPa North 3.2 km/h 8 km/h 73% 0 mm
18:44 22.9 °C 17.8 °C 1013.8 hPa NNE 4.8 km/h 11.3 km/h 73% 0 mm
18:49 22.9 °C 17.8 °C 1013.8 hPa NE 3.2 km/h 9.7 km/h 73% 0 mm
18:54 22.7 °C 17.8 °C 1014.1 hPa NE 3.2 km/h 6.4 km/h 74% 0 mm
18:59 22.7 °C 17.8 °C 1013.8 hPa ENE 6.4 km/h 8 km/h 74% 0 mm
19:04 22.7 °C 17.8 °C 1014.1 hPa ENE 4.8 km/h 12.9 km/h 74% 0 mm
19:09 22.9 °C 18 °C 1013.8 hPa ENE 6.4 km/h 14.5 km/h 74% 0 mm
19:14 23 °C 18.1 °C 1014.1 hPa NE 4.8 km/h 14.5 km/h 74% 0 mm
19:19 22.9 °C 18.1 °C 1014.1 hPa NNE 3.2 km/h 11.3 km/h 74% 0 mm
19:24 22.8 °C 18.2 °C 1014.1 hPa NNE 3.2 km/h 11.3 km/h 75% 0 mm
19:29 22.6 °C 17.9 °C 1014.1 hPa NE 4.8 km/h 14.5 km/h 75% 0 mm
19:34 22.6 °C 17.9 °C 1014.1 hPa NE 3.2 km/h 14.5 km/h 75% 0 mm
19:39 22.4 °C 17.8 °C 1014.1 hPa Calm   4.8 km/h 75% 0 mm
19:44 22.3 °C 17.7 °C 1014.1 hPa NE 1.6 km/h 6.4 km/h 75% 0 mm
19:49 22.2 °C 17.6 °C 1014.1 hPa NE 3.2 km/h 11.3 km/h 75% 0 mm
19:54 22.2 °C 17.8 °C 1014.1 hPa NE 1.6 km/h 4.8 km/h 76% 0 mm
19:59 22.2 °C 17.5 °C 1014.1 hPa NE 6.4 km/h 11.3 km/h 75% 0 mm
20:04 22.1 °C 17.4 °C 1014.4 hPa NNE 3.2 km/h 11.3 km/h 75% 0 mm
20:09 21.9 °C 17.3 °C 1014.4 hPa ENE 3.2 km/h 12.9 km/h 75% 0 mm
20:14 21.8 °C 17.4 °C 1014.4 hPa NE 4.8 km/h 12.9 km/h 76% 0 mm
20:19 21.7 °C 17.3 °C 1014.4 hPa NE 4.8 km/h 8 km/h 76% 0 mm
20:24 21.6 °C 17.4 °C 1014.8 hPa NNE 3.2 km/h 8 km/h 77% 0 mm
20:29 21.6 °C 17.3 °C 1014.4 hPa NNE 3.2 km/h 12.9 km/h 77% 0 mm
20:34 21.4 °C 17.2 °C 1014.8 hPa NE 4.8 km/h 12.9 km/h 77% 0 mm
20:39 21.3 °C 17.3 °C 1014.8 hPa NNE 3.2 km/h 6.4 km/h 78% 0 mm
20:44 21.2 °C 17.2 °C 1014.8 hPa NE 4.8 km/h 11.3 km/h 78% 0 mm
20:49 21.1 °C 17.1 °C 1014.8 hPa NE 4.8 km/h 11.3 km/h 78% 0 mm
20:54 21 °C 17.2 °C 1014.8 hPa NE 3.2 km/h 9.7 km/h 79% 0 mm
20:59 20.8 °C 17.3 °C 1014.8 hPa Calm   6.4 km/h 80% 0 mm
21:04 20.8 °C 17.3 °C 1014.8 hPa NE 3.2 km/h 12.9 km/h 80% 0 mm
21:09 20.8 °C 17.2 °C 1014.8 hPa NNE 3.2 km/h 8 km/h 80% 0 mm
21:14 20.7 °C 17.2 °C 1014.8 hPa NNE 3.2 km/h 8 km/h 80% 0 mm
21:19 20.7 °C 17.1 °C 1014.8 hPa NE 3.2 km/h 8 km/h 80% 0 mm
21:24 20.6 °C 17.2 °C 1015.1 hPa NE 3.2 km/h 11.3 km/h 81% 0 mm
21:29 20.4 °C 17.3 °C 1015.1 hPa NE 1.6 km/h 11.3 km/h 82% 0 mm
21:34 20.4 °C 17.3 °C 1015.1 hPa NNE 3.2 km/h 8 km/h 82% 0 mm
21:39 20.3 °C 17.2 °C 1015.1 hPa NNE 1.6 km/h 6.4 km/h 82% 0 mm
21:44 20.3 °C 17.1 °C 1015.1 hPa NNE 1.6 km/h 8 km/h 82% 0 mm
21:49 20.3 °C 17.1 °C 1015.1 hPa NE 1.6 km/h 8 km/h 82% 0 mm
21:54 20.2 °C 17.1 °C 1015.1 hPa NE 3.2 km/h 11.3 km/h 82% 0 mm
21:59 20.2 °C 17 °C 1015.1 hPa NE 1.6 km/h 11.3 km/h 82% 0 mm
22:04 20.1 °C 17.1 °C 1015.1 hPa NE 6.4 km/h 12.9 km/h 83% 0 mm
22:09 20.2 °C 17 °C 1015.5 hPa Calm   11.3 km/h 82% 0 mm
22:14 20.1 °C 16.9 °C 1015.5 hPa NE 1.6 km/h 3.2 km/h 82% 0 mm
22:19 19.9 °C 16.9 °C 1015.5 hPa NE 1.6 km/h 4.8 km/h 83% 0 mm
22:24 19.9 °C 16.9 °C 1015.5 hPa ENE 3.2 km/h 8 km/h 83% 0 mm
22:29 19.9 °C 16.9 °C 1015.5 hPa NE 3.2 km/h 9.7 km/h 83% 0 mm
22:34 20 °C 17 °C 1015.1 hPa NE 4.8 km/h 11.3 km/h 83% 0 mm
22:39 20 °C 17 °C 1015.1 hPa Calm   11.3 km/h 83% 0 mm
22:44 19.9 °C 16.9 °C 1015.1 hPa NE 6.4 km/h 9.7 km/h 83% 0 mm
22:49 19.8 °C 17.1 °C 1015.5 hPa NE 3.2 km/h 12.9 km/h 84% 0 mm
22:54 19.8 °C 17 °C 1015.5 hPa NE 4.8 km/h 12.9 km/h 84% 0 mm
22:59 19.7 °C 16.9 °C 1015.5 hPa NE 4.8 km/h 11.3 km/h 84% 0 mm
23:04 19.7 °C 16.9 °C 1015.5 hPa NE 4.8 km/h 11.3 km/h 84% 0 mm
23:09 19.6 °C 16.8 °C 1015.5 hPa Calm   3.2 km/h 84% 0 mm
23:14 19.4 °C 16.8 °C 1015.5 hPa NE 3.2 km/h 4.8 km/h 85% 0 mm
23:19 19.3 °C 16.7 °C 1015.5 hPa Calm   6.4 km/h 85% 0 mm
23:24 19.3 °C 16.9 °C 1015.1 hPa NE 3.2 km/h 8 km/h 86% 0 mm
23:29 19.4 °C 17 °C 1015.1 hPa NE 4.8 km/h 8 km/h 86% 0 mm
23:34 19.3 °C 16.7 °C 1015.5 hPa ENE 3.2 km/h 6.4 km/h 85% 0 mm
23:39 19.2 °C 16.8 °C 1015.5 hPa Calm   6.4 km/h 86% 0 mm
23:44 19.2 °C 16.8 °C 1015.5 hPa ENE 1.6 km/h 6.4 km/h 86% 0 mm
23:49 19.1 °C 16.7 °C 1015.5 hPa ENE 1.6 km/h 6.4 km/h 86% 0 mm
23:54 19.1 °C 16.7 °C 1015.5 hPa ENE 3.2 km/h 6.4 km/h 86% 0 mm
23:59 19.1 °C 16.7 °C 1015.5 hPa ENE 1.6 km/h 6.4 km/h 86% 0 mm
Buffalo, New York, USA
Compliments of Weather Underground - 2.5 mb